(431263) = 2006 UV44

Discovered at Kitt Peak on 2006-10-16 by Spacewatch.

Orbit

Orbit type: Main Belt

Note: WebGL enabled browser required.

epoch2023-09-13.0
epoch JD2460200.5
perihelion date2021-01-12.46133
perihelion JD2459226.96133
argument of perihelion (°)185.93517
ascending node (°)49.99703
inclination (°)27.52515
eccentricity0.0629458
perihelion distance (AU)2.9769453
Tisserand w.r.t. Jupiter3.0
ΔV w.r.t. Earth (km/sec)13.8
semimajor axis (AU)3.1769189
mean anomaly (°)169.45245
mean daily motion (°/day)0.17405830
aphelion distance (AU)3.377
period (years)5.66
P-vector [x]-0.56913936
P-vector [y]-0.73410797
P-vector [z]-0.37035912
Q-vector [x]0.74213368
Q-vector [y]-0.26470595
Q-vector [z]-0.61576648
absolute magnitude15.78
phase slope0.15
uncertainty0
referenceMPEC 2024-A65
observations used266
oppositions10
arc length (days)8494
first opposition used2000
last opposition used2024
residual rms (arc-secs)0.77
perturbers coarse indicatorM-v
perturbers precise indicator003Ek
first observation date used2000-10-02.0
last observation date used2024-01-04.0
computer nameMPCLINUX
Minimum Orbit Intersection Distances (in AU)
for orbit epoch: 2460200.5, reference: E2023-Y46
Mercury2.51644
Venus2.25398
Earth1.96603
Mars1.41687
Jupiter1.61368
Saturn5.76751
Uranus15.6384
Neptune26.4811

Observations

268 total observations over interval: 2000 10 02.460800 – 2024 01 04.364073
These data are available for download (format description).

Date (UT) J2000 RA J2000 Dec Magn Location Ref
2000 10 02.460800 02 36 14.154 -00 39 58.04 21.03 V 645 – Apache Point-Sloan Digital Sky Survey MPS 323476
2000 10 02.464272 02 36 13.995 -00 39 58.28 21.82   645 – Apache Point-Sloan Digital Sky Survey MPS 323476
2006 10 16.46468 03 45 55.33 +18 33 43.6 20.8 V 691 – Steward Observatory, Kitt Peak-Spacewatch MPS 184273
2006 10 16.48210 03 45 54.59 +18 33 46.3 21.0 V 691 – Steward Observatory, Kitt Peak-Spacewatch MPS 184273
2006 10 16.49947 03 45 53.87 +18 33 50.0 21.4 V 691 – Steward Observatory, Kitt Peak-Spacewatch MPS 184273
2006 10 20.44317 03 43 04.57 +18 47 09.8 20.8 V 691 – Steward Observatory, Kitt Peak-Spacewatch MPS 184273
2006 10 20.46058 03 43 03.78 +18 47 13.0 21.0 V 691 – Steward Observatory, Kitt Peak-Spacewatch MPS 184273
2006 10 20.47800 03 43 02.94 +18 47 16.7 21.0 V 691 – Steward Observatory, Kitt Peak-Spacewatch MPS 184273
2006 10 27.39349 03 37 23.08 +19 09 23.0 20.3 V G96 – Mt. Lemmon Survey MPS 184273
2006 10 27.40454 03 37 22.51 +19 09 24.8 20.8 V G96 – Mt. Lemmon Survey MPS 184273
2006 10 27.41564 03 37 21.90 +19 09 27.3 20.9 V G96 – Mt. Lemmon Survey MPS 184273
2006 10 27.42675 03 37 21.36 +19 09 28.9 20.6 V G96 – Mt. Lemmon Survey MPS 184273
2006 11 13.17797 03 21 02.76 +19 55 36.9   691 – Steward Observatory, Kitt Peak-Spacewatch MPS 187155
2006 11 13.19533 03 21 01.69 +19 55 39.5   691 – Steward Observatory, Kitt Peak-Spacewatch MPS 187155
2006 11 13.21270 03 21 00.59 +19 55 42.4   691 – Steward Observatory, Kitt Peak-Spacewatch MPS 187155
2006 11 16.12934 03 17 59.67 +20 02 37.8 20.8 V 691 – Steward Observatory, Kitt Peak-Spacewatch MPS 187155
2006 11 16.14673 03 17 58.59 +20 02 40.4 20.7 V 691 – Steward Observatory, Kitt Peak-Spacewatch MPS 187155
2006 11 16.16412 03 17 57.49 +20 02 42.6 20.7 V 691 – Steward Observatory, Kitt Peak-Spacewatch MPS 187155
2006 11 24.29385 03 09 38.91 +20 20 35.2 20.4 V G96 – Mt. Lemmon Survey MPS 190582
2006 11 24.30058 03 09 38.52 +20 20 35.9 20.4 V G96 – Mt. Lemmon Survey MPS 190582
2006 11 24.30727 03 09 38.12 +20 20 36.3 20.3 V G96 – Mt. Lemmon Survey MPS 190582
2006 11 24.31401 03 09 37.72 +20 20 37.4 20.3 V G96 – Mt. Lemmon Survey MPS 190582
2009 04 18.34024 14 11 00.56 +04 01 27.1 19.6 V 703 – Catalina Sky Survey MPS 308681
2009 04 18.34626 14 11 00.09 +04 01 25.7 19.7 V 703 – Catalina Sky Survey MPS 308681
2009 04 18.35237 14 10 59.80 +04 01 24.6 19.7 V 703 – Catalina Sky Survey MPS 308681
2009 04 18.35847 14 10 59.34 +04 01 24.5 20.2 V 703 – Catalina Sky Survey MPS 308681
2009 04 28.27794 14 00 50.11 +03 33 28.4 19.9 V 703 – Catalina Sky Survey MPS 308681
2009 04 28.28630 14 00 49.57 +03 33 26.8 19.8 V 703 – Catalina Sky Survey MPS 308681
2009 04 28.29476 14 00 48.99 +03 33 24.8 19.7 V 703 – Catalina Sky Survey MPS 308681
2009 04 28.30315 14 00 48.56 +03 33 23.1 19.6 V 703 – Catalina Sky Survey MPS 308681
2010 04 14.816411 20 05 19.01 -41 48 47.5   C51 – WISE MPS 323476
2010 04 14.948715 20 05 28.29 -41 49 45.0   C51 – WISE MPS 323476
2010 04 15.081020 20 05 37.56 -41 50 42.2   C51 – WISE MPS 323476
2010 04 15.081147 20 05 37.61 -41 50 41.1   C51 – WISE MPS 323476
2010 04 15.213450 20 05 46.92 -41 51 38.7   C51 – WISE MPS 323476
2010 04 15.478059 20 06 05.52 -41 53 34.8   C51 – WISE MPS 323476
2010 04 15.544153 20 06 10.14 -41 54 03.9   C51 – WISE MPS 323476
2010 04 15.610369 20 06 14.80 -41 54 33.2   C51 – WISE MPS 323476
2010 04 15.676457 20 06 19.40 -41 55 01.4   C51 – WISE MPS 323476
2010 04 15.808762 20 06 28.67 -41 55 58.1   C51 – WISE MPS 323476
2010 04 15.808889 20 06 28.66 -41 55 59.5   C51 – WISE MPS 323476
2010 04 15.941193 20 06 37.86 -41 56 57.2   C51 – WISE MPS 323476
2010 04 16.073498 20 06 47.16 -41 57 54.7   C51 – WISE MPS 323476
2015 01 26.65031 15 35 03.220 -12 10 24.36 21.4 w F51 – Pan-STARRS 1, Haleakala MPS 567510
2015 01 26.65693 15 35 03.604 -12 10 27.19 21.5 w F51 – Pan-STARRS 1, Haleakala MPS 567510
2015 01 26.66025 15 35 03.809 -12 10 28.40 21.5 w F51 – Pan-STARRS 1, Haleakala MPS 567510
2015 03 21.57169 16 05 15.899 -17 43 37.19 21.1 w F51 – Pan-STARRS 1, Haleakala MPS 592368
2015 03 21.58232 16 05 15.894 -17 43 40.89 21.0 w F51 – Pan-STARRS 1, Haleakala MPS 592368
2015 03 21.59293 16 05 15.877 -17 43 44.87 21.1 w F51 – Pan-STARRS 1, Haleakala MPS 592368
2015 03 21.60358 16 05 15.855 -17 43 48.49 21.0 w F51 – Pan-STARRS 1, Haleakala MPS 592368
2015 03 30.56370 16 04 19.228 -18 37 30.89 20.7 i F51 – Pan-STARRS 1, Haleakala MPS 595310
2015 03 30.57500 16 04 19.060 -18 37 34.82 20.6 i F51 – Pan-STARRS 1, Haleakala MPS 595310
2015 05 12.33884 15 32 48.76 -22 41 41.4 19.8 V G96 – Mt. Lemmon Survey MPS 607244
2015 05 12.34342 15 32 48.45 -22 41 42.4 19.9 V G96 – Mt. Lemmon Survey MPS 607244
2015 05 12.34801 15 32 48.14 -22 41 43.9 19.9 V G96 – Mt. Lemmon Survey MPS 607244
2015 05 12.35260 15 32 47.80 -22 41 45.3 19.7 V G96 – Mt. Lemmon Survey MPS 607244
2015 05 23.10180 15 20 51.99 -23 30 42.0 19.9 V W84 – Cerro Tololo-DECam MPS 790573
2015 05 23.10498 15 20 51.78 -23 30 42.8   W84 – Cerro Tololo-DECam MPS 790573
2015 05 23.10817 15 20 51.56 -23 30 43.6   W84 – Cerro Tololo-DECam MPS 790573
2015 05 23.11134 15 20 51.34 -23 30 44.4   W84 – Cerro Tololo-DECam MPS 790573
2015 05 23.11450 15 20 51.14 -23 30 45.2   W84 – Cerro Tololo-DECam MPS 790573
2015 05 24.10098 15 19 46.36 -23 34 53.7 19.7 V W84 – Cerro Tololo-DECam MPS 790573
2015 05 24.10417 15 19 46.15 -23 34 54.4   W84 – Cerro Tololo-DECam MPS 790573
2015 05 24.10734 15 19 45.94 -23 34 55.2   W84 – Cerro Tololo-DECam MPS 790573
2015 05 24.11052 15 19 45.72 -23 34 56.1   W84 – Cerro Tololo-DECam MPS 790573
2015 05 24.11372 15 19 45.51 -23 34 56.9   W84 – Cerro Tololo-DECam MPS 790573
2015 05 25.24176 15 18 31.82 -23 39 40.9 20.1 V 703 – Catalina Sky Survey MPS 609816
2015 05 25.24925 15 18 31.39 -23 39 41.5 19.9 V 703 – Catalina Sky Survey MPS 609816
2015 05 25.25674 15 18 30.90 -23 39 44.5   703 – Catalina Sky Survey MPS 609816
2015 05 25.26424 15 18 30.43 -23 39 45.3 18.4 V 703 – Catalina Sky Survey MPS 609816
2015 05 25.37237 15 18 23.457 -23 40 12.56 19.7 i F51 – Pan-STARRS 1, Haleakala MPS 609816
2015 05 25.38371 15 18 22.705 -23 40 15.13 19.9 i F51 – Pan-STARRS 1, Haleakala MPS 609816
2015 05 25.39501 15 18 21.957 -23 40 18.09 19.7 i F51 – Pan-STARRS 1, Haleakala MPS 609816
2015 05 25.40632 15 18 21.192 -23 40 20.83 19.8 i F51 – Pan-STARRS 1, Haleakala MPS 609816
2015 06 11.31423 15 02 01.996 -24 42 39.89 20.3 w F51 – Pan-STARRS 1, Haleakala MPS 611501
2015 06 11.33662 15 02 00.861 -24 42 44.46 20.2 w F51 – Pan-STARRS 1, Haleakala MPS 611501
2015 06 11.34783 15 02 00.292 -24 42 46.56 20.2 w F51 – Pan-STARRS 1, Haleakala MPS 611501
2015 06 22.30605 14 54 31.211 -25 18 52.56 20.0 i F52 – Pan-STARRS 2, Haleakala MPS 614144
2015 06 22.31739 14 54 30.841 -25 18 54.75 20.4 i F52 – Pan-STARRS 2, Haleakala MPS 614144
2015 06 22.34014 14 54 30.038 -25 18 59.13 20.4 i F52 – Pan-STARRS 2, Haleakala MPS 614144
2017 09 18.54785 02 57 46.762 +03 10 48.38 21.2 w F51 – Pan-STARRS 1, Haleakala MPS 818923
2017 09 18.57189 02 57 46.157 +03 10 49.00 21.4 w F51 – Pan-STARRS 1, Haleakala MPS 818923
2017 09 18.58391 02 57 45.856 +03 10 49.43 21.2 w F51 – Pan-STARRS 1, Haleakala MPS 818923
2017 09 26.50268 02 54 06.152 +03 13 37.95 21.1 w F51 – Pan-STARRS 1, Haleakala MPS 823213
2017 09 26.51626 02 54 05.688 +03 13 38.20 21.1 w F51 – Pan-STARRS 1, Haleakala MPS 823213
2017 09 26.52987 02 54 05.228 +03 13 38.41 21.2 w F51 – Pan-STARRS 1, Haleakala MPS 823213
2017 09 26.54366 02 54 04.747 +03 13 38.57 21.1 w F51 – Pan-STARRS 1, Haleakala MPS 823213
2017 09 27.33055 02 53 38.65 +03 13 52.5 21.0 V G96 – Mt. Lemmon Survey MPS 823213
2017 09 27.33615 02 53 38.45 +03 13 54.2 20.7 V G96 – Mt. Lemmon Survey MPS 823213
2017 09 27.34149 02 53 38.28 +03 13 52.7 20.8 V G96 – Mt. Lemmon Survey MPS 823213
2017 09 27.34681 02 53 38.04 +03 13 53.1 21.1 V G96 – Mt. Lemmon Survey MPS 823213
2017 09 28.52885 02 52 57.166 +03 14 14.94 20.9 w F51 – Pan-STARRS 1, Haleakala MPS 823213
2017 09 28.54090 02 52 56.729 +03 14 15.12 20.9 w F51 – Pan-STARRS 1, Haleakala MPS 823213
2017 09 28.55293 02 52 56.281 +03 14 15.33 20.8 w F51 – Pan-STARRS 1, Haleakala MPS 823213
2017 09 29.58173 02 52 19.314 +03 14 33.75 20.9 w F51 – Pan-STARRS 1, Haleakala MPS 823213
2017 09 29.59408 02 52 18.848 +03 14 33.88 20.8 w F51 – Pan-STARRS 1, Haleakala MPS 823213
2017 09 29.60641 02 52 18.380 +03 14 34.16 20.9 w F51 – Pan-STARRS 1, Haleakala MPS 823213
2017 10 16.32127 02 39 40.53 +03 21 27.2 20.5 G G96 – Mt. Lemmon Survey MPS 871423
